Погода в Ершевской

Россия / Архангельская область     61°32′11″N   46°00′54″E
темп.,
°C
ветер,
м/с
пор.,
м/с
влажн.,
%
обл.,
%
осадки,
мм/ч
давл.,
гПа
погр.,
м
25 июля, вс
вс2500:00+10зюз3967100 0.1 1012277
03:00+9зюз3874100 0.1 1013261
06:00+11зюз3964100 0.0 1013362
09:00+14зюз41062100 0.1 1014508
12:00+17з4742100 0.0 10132154
15:00+18з3746100 0.0 10142052
18:00+17зюз375796 0.0 1015588
21:00+14з3867100 0.0 1015281
26 июля, пн
пн2600:00+13юз2771100 0.1 1015173
03:00+13зюз3106899 0.1 1015293
06:00+12зюз2682100 0.1 1016225
09:00+13зюз258386 0.1 1015204
12:00+20з485291 0.4 10141897
15:00+14зсз41194100 1.9 1015699
18:00+15сз499213 0.6 1014956
21:00+11з23972 0.9 101546
27 июля, вт
вт2700:00+9сз229719 0.1 101740
03:00+6сз259815 0.1 101898
06:00+8зсз399124 0.0 1019369
09:00+11зсз486714 0.0 1018638
12:00+17сз584533 0.0 10171990
15:00+20сз593580 0.0 10152649
18:00+16зсз385299 0.0 1015438
21:00+14сз311533 0.0 1015467
28 июля, ср
ср2800:00+9зсз23772 0.0 101641
03:00+6зсз118921 0.0 101612
06:00+10сз12699 0.0 1015181
09:00+16з1348100 0.0 1013818
12:00+20зсз3637100 0.0 10111636
15:00+12зюз259565 2.2 1010189
18:00+15ююз278998 0.5 1007263
21:00+12юз269753 1.6 1006189
29 июля, чт
чт2900:00+12зюз249818 0.1 100581
03:00+10зсз119947 0.1 100512
06:00+13ююз019668 0.0 1004178
09:00+16св118698 0.0 1004440
12:00+23св125442 0.0 10031055
15:00+25вюв1445100 0.1 10012099
18:00+18св3684100 4.1 1001225
21:00+15вюв379898 9.8 1001181